Meteo Giornale » Osservazioni meteo Stati Uniti (USA) » Los Angeles

ore: 06:53 - Osservazioni Meteo Los Angeles
Lat. 33° 56' N Lon. 118° 23' W Alt. 38 metri s.l.m.

coperto America/Los_Angeles

21 °C

Coperto

Temp. 24 Ore

19 °C

27 °C

Sud-Est

13 Km/h

Dew point 15 °C

Umidità 68 %

Visibilità  10 Km

Il sole sorge alle ore 06:20

Il sole tramonta alle ore 19:31

Data e Ora Cielo e Fenomeni T °C DP °C Um. % Pres. hPa Vis. km Vento km/h
Oggi h: 06:53 coperto Coperto 21 15 68 1011 10 SE 13
Oggi h: 05:53 coperto Coperto 21 15 68 1010 10 SE 9.3
Oggi h: 04:53 coperto Coperto 21 16 73 1010 10 N 0
Oggi h: 03:53 coperto Coperto 20 16 77 1010 10 N 0
Oggi h: 02:53 molto_nuvoloso Molto Nuvoloso 20 16 77 1009 10 SE 11.1
Oggi h: 01:53 molto_nuvoloso Molto Nuvoloso 20 16 77 1009 10 SE 9.3
Oggi h: 01:45 molto_nuvoloso Molto Nuvoloso 20 16 77 1009 10 E/SE 16.7
Oggi h: 00:53 poco_nuvoloso Poco Nuvoloso 19 16 82 1009 10 N 11.1
Ieri h: 23:53 poco_nuvoloso Poco Nuvoloso 20 16 77 1009 10 E/SE 11.1
Ieri h: 22:53 nuvoloso Nuvoloso 21 16 73 1009 10 SE 7.4
Ieri h: 22:44 nuvoloso Nuvoloso 21 16 73 1009 10 E/SE 9.3
Ieri h: 21:53 molto_nuvoloso Molto Nuvoloso 22 17 73 1008 10 N 11.1
Ieri h: 20:53 coperto Coperto 22 17 73 1008 10 O 9.3
Ieri h: 19:53 molto_nuvoloso Molto Nuvoloso 22 17 73 1008 10 SO 11.1
Ieri h: 19:44 molto_nuvoloso Molto Nuvoloso 22 17 73 1008 10 SO 11.1
Ieri h: 18:53 poco_nuvoloso Poco Nuvoloso 22 17 73 1008 10 O/SO 14.8
Ieri h: 17:53 poco_nuvoloso Poco Nuvoloso 23 17 68 1008 10 SO 14.8
Ieri h: 16:53 poco_nuvoloso Poco Nuvoloso 24 17 64 1007 10 O/SO 22.2
Ieri h: 15:53 poco_nuvoloso Poco Nuvoloso 24 17 64 1007 10 O/SO 20.3
Ieri h: 14:53 nuvoloso Nuvoloso 25 17 61 1008 10 O/SO 18.5
Ieri h: 13:53 poco_nuvoloso Poco Nuvoloso 24 17 64 1008 10 O/SO 16.7
Ieri h: 12:53 poco_nuvoloso Poco Nuvoloso 25 17 61 1009 10 O 16.7
Ieri h: 11:53 poco_nuvoloso Poco Nuvoloso 25 17 61 1009 10 O 16.7
Ieri h: 11:33 poco_nuvoloso Poco Nuvoloso 27 17 54 1009 10 O 7.4
Ieri h: 10:53 poco_nuvoloso Poco Nuvoloso 26 17 57 1009 10 E/SE 11.1
Ieri h: 09:53 poco_nuvoloso Poco Nuvoloso 24 17 64 1009 14 E 11.1
Ieri h: 08:53 foschia Foschia 22 17 73 1009 10 E/SE 11.1
Ieri h: 07:53 foschia Foschia 21 17 77 1008 8 E 9.3